This demonstration page uses our WeatherBlox Daily Observations layout. Learn more.

Left ArrowRight Arrow

Hourly Observations for November 9, 2015

Temp ( °F °C ) Dew Point ( °F °C ) Humidity (%) Winds ( mph kmh ) Pressure ( in mb ) Visibility ( mi km ) Precip ( " mm )
12:53 am 00:53 Clear 29 -1.7 27 -2.8 92 92 Calm 30.34 1028 10 16 0.00 0.00
1:53 am 01:53 Clear 29 -1.7 27 -2.8 92 92 Calm 30.33 1027 10 16 0.00 0.00
2:53 am 02:53 Clear 28 -2.2 26 -3.3 92 92 Calm 30.32 1027 9 14 0.00 0.00
3:53 am 03:53 Clear 28 -2.2 26 -3.3 92 92 Calm 30.30 1026 9 14 0.00 0.00
4:53 am 04:53 Clear 28 -2.2 26 -3.3 92 92 Calm 30.29 1026 10 16 0.00 0.00
5:53 am 05:53 Clear 27 -2.8 25 -3.9 92 92 Calm 30.31 1027 8 13 0.00 0.00
6:53 am 06:53 Clear 26 -3.3 25 -3.9 96 96 Calm 30.31 1027 9 14 0.00 0.00
7:53 am 07:53 Sunny 29 -1.7 27 -2.8 92 92 Calm 30.31 1026 10 16 0.00 0.00
8:53 am 08:53 Sunny 37 2.8 33 0.6 86 86 S 3 6 30.32 1027 10 16 0.00 0.00
9:53 am 09:53 Sunny 43 6.1 31 -0.6 63 63 ENE 3 6 30.31 1026 10 16 0.00 0.00
10:53 am 10:53 Sunny 48 8.9 32 0 54 54 NE 5 7 30.29 1026 10 16 0.00 0.00
11:53 am 11:53 Mostly Cloudy 52 11.1 33 0.6 49 49 ENE 6 9 30.27 1025 10 16 0.00 0.00
12:53 pm 12:53 Mostly Cloudy 54 12.2 32 0 43 43 ENE 6 9 30.24 1024 10 16 0.00 0.00
1:53 pm 13:53 Cloudy with Light Rain 54 12.2 30 -1.1 40 40 ENE 6 9 30.21 1023 10 16 0.00 0.03
2:53 pm 14:53 Mostly Cloudy 55 12.8 32 0 42 42 ENE 6 9 30.19 1022 10 16 0.00 0.03
3:53 pm 15:53 Cloudy with Light Rain 54 12.2 33 0.6 45 45 NE 5 7 30.18 1022 10 16 0.00 0.03
4:53 pm 16:53 Cloudy 53 11.7 34 1.1 48 48 NNE 3 6 30.17 1022 10 16 0.00 0.03
5:53 pm 17:53 Cloudy 52 11.1 34 1.1 50 50 NNE 3 6 30.16 1022 10 16 0.00 0.00
6:53 pm 18:53 Cloudy 52 11.1 35 1.7 53 53 NW 3 6 30.16 1022 10 16 0.00 0.03
7:53 pm 19:53 Cloudy 51 10.6 36 2.2 56 56 N 5 7 30.15 1021 10 16 0.00 0.03
8:53 pm 20:53 Cloudy with Light Rain 51 10.6 37 2.8 59 59 N 8 13 30.13 1020 10 16 0.00 0.03
9:53 pm 21:53 Cloudy 50 10 38 3.3 63 63 NW 3 6 30.13 1020 10 16 0.00 0.03
10:53 pm 22:53 Cloudy 49 9.4 42 5.6 77 77 SE 5 7 30.12 1020 10 16 0.00 0.00
11:02 pm 23:02 Cloudy 49 9.4 43 6.1 80 80 SE 3 6 30.12 1020 10 16 0.00 0.00
11:53 pm 23:53 Cloudy with Light Rain 47 8.3 45 7.2 93 93 Calm 30.10 1019 4 6 0.03 0.76

Powered by AerisWeather